Flag for India Weather past 2 weeks in Virudhunagar, Tamil Nadu, India

Now
97 °F

Passing clouds.


Feels Like: 102 °F
Forecast: 79 / 97 °F
Wind: 12 mph from Northwest

Location: Tiruchchirapalli

Current Time: Jul 30, 2015 at 12:49:24 PM

Latest Report: Jul 30, 2015 at 12:10 PM


Visibility: 4 mi

Pressure: 29.80 "Hg

Humidity: 39%

Dew point: 68 °F

Location of VirudhunagarLocation

Historic Weather in Virudhunagar — Graph

°F

Virudhunagar temperature yesterday

Maximum temperature yesterday: 104 °F (at 3:10 PM)
Minimum temperature yesterday: 81 °F (at 2:40 AM)
Average temperature yesterday: 91 °F

Past Weeks' High & Low Weather Summary

 TemperatureHumidityPressure
High104 °F (Jul 29, 3:10 PM)94% (Jul 23, 9:40 PM)29.86 "Hg (Jul 23, 9:40 PM)
Low77 °F (Jul 23, 9:40 PM)28% (Jul 29, 3:10 PM)29.53 "Hg (Jul 16, 4:40 PM)
Average89 °F55%29.72 "Hg
* Reported Jul 15 11:40 AM — Jul 30 11:40 AM, Virudhunagar, Weather by CustomWeather, © 2015

Note: Actual official high and low records may vary slightly from our data, if they occured in-between our weather recording intervals... More about our weather records

Advertising

Virudhunagar weather history for previous 24 hours

 ConditionsComfort  
Time TempWeatherWind HumidityBarometerVisibility
11:40 AM
Thu, Jul 30
95 °FPassing clouds.12 mph41%29.80 "Hg4 mi
11:10 AM93 °FPassing clouds.10 mph44%29.80 "Hg4 mi
10:40 AM91 °FPassing clouds.12 mph49%29.83 "Hg4 mi
10:10 AM90 °FPassing clouds.10 mph52%29.83 "Hg4 mi
9:40 AM88 °FHaze.10 mph55%29.83 "Hg3 mi
9:10 AM86 °FScattered clouds.9 mph62%29.83 "Hg3 mi
8:40 AM84 °FScattered clouds.9 mph62%29.83 "Hg3 mi
8:10 AM84 °FHaze.10 mph66%29.83 "Hg3 mi
7:40 AM82 °FHaze.12 mph70%29.80 "Hg3 mi
7:10 AM82 °FHaze.9 mph66%29.80 "Hg3 mi
6:40 AM81 °FHaze.9 mph70%29.80 "Hg3 mi
6:10 AM81 °FHaze.7 mph70%29.77 "Hg3 mi
5:40 AM81 °FHaze.6 mph70%29.77 "Hg3 mi
5:10 AM81 °FHaze.6 mph70%29.77 "Hg3 mi
4:40 AM82 °FHaze.7 mph70%29.77 "Hg3 mi
4:10 AM82 °FHaze.7 mph70%29.77 "Hg3 mi
3:40 AM82 °FHaze.8 mph70%29.77 "Hg3 mi
3:10 AM82 °FHaze.6 mph70%29.77 "Hg3 mi
2:40 AM82 °FHaze.3 mph70%29.77 "Hg3 mi
1:40 AM84 °FHaze.5 mph66%29.80 "Hg3 mi
1:10 AM84 °FHaze.3 mph70%29.80 "Hg3 mi
12:10 AM84 °FPassing clouds.6 mph74%29.83 "Hg4 mi
11:40 PM
Wed, Jul 29
84 °FPassing clouds.6 mph74%29.83 "Hg4 mi
11:10 PM86 °FPassing clouds.6 mph70%29.83 "Hg4 mi
10:40 PM86 °FPassing clouds.6 mph70%29.83 "Hg4 mi
10:10 PM86 °FPassing clouds.6 mph75%29.83 "Hg4 mi
9:40 PM86 °FPassing clouds.8 mph75%29.80 "Hg4 mi
9:10 PM88 °FPassing clouds.9 mph70%29.80 "Hg4 mi
8:40 PM90 °FPassing clouds.10 mph63%N/A4 mi
8:10 PM90 °FPassing clouds.6 mph55%29.77 "Hg4 mi
7:40 PM91 °FPassing clouds.5 mph52%29.74 "Hg4 mi
7:10 PM91 °FPassing clouds.3 mph49%29.74 "Hg4 mi
6:40 PM93 °FPassing clouds.7 mph47%29.71 "Hg4 mi
6:10 PM95 °FScattered clouds.9 mph44%29.71 "Hg5 mi
5:40 PM99 °FScattered clouds.9 mph37%29.68 "HgN/A
5:10 PM100 °FScattered clouds.9 mph33%29.68 "HgN/A
4:40 PM102 °FScattered clouds.6 mph29%29.68 "HgN/A
4:10 PM102 °FScattered clouds.9 mph29%29.68 "HgN/A
3:40 PM104 °FScattered clouds.10 mph28%29.68 "HgN/A
3:10 PM104 °FScattered clouds.9 mph28%29.71 "HgN/A
2:40 PM102 °FScattered clouds.9 mph29%29.71 "HgN/A
2:10 PM100 °FScattered clouds.7 mph33%29.71 "HgN/A
1:40 PM100 °FScattered clouds.5 mph35%29.74 "HgN/A
1:10 PM100 °FScattered clouds.15 mph35%29.74 "HgN/A
12:40 PM99 °FScattered clouds.5 mph39%29.77 "HgN/A
12:10 PM97 °FPassing clouds.8 mph39%29.77 "Hg5 mi
Weather by CustomWeather, © 2015

See weather overviewHow to use our weather pages